Find Starlink 36983

NORAD ID: 68323 Int'l Des: 2026-059 Owner: SPXS Country: US Constellation: starlink operational
LEOCIRCULAR

Live Position

Loading 3D Globe...

About Starlink 36983

Description loading...

Upcoming Passes

Passes for default location (London). Set your location on the main map for personalized predictions.

Altitude History

Loading altitude history...

Two-Line Element Set

1 68323U 26059C 26106.25002315 -.01885179 00000-0 -24702-1 0 9994
2 68323 53.1593 174.9806 0001463 80.5254 144.4841 15.61191048 5088
Epoch: Apr 16, 2026 • Age: 6 hours

Current Status

Altitude 394.0 km
Velocity 7.67 km/s
Sub-Earth Point -21.76°S, 14.69°W
Launch Date Mar 22, 2026
Age 24 days
Type internet

Technical Details

Classification Payload
Mass 575.00 kg
Dry Mass 530.00 kg
Total Mass 575.00 kg
Length 0.30 m
Diameter 4.10 m
Span 29.00 m
Shape Box + pan
Manufacturer SPXS
Bus Type Starlink V2MO
Phase Status In Orbit
Owner/State SPXS/US

Most Searched